CST,Max TemperatureF,Mean TemperatureF,Min TemperatureF,Max Dew PointF,MeanDew PointF,Min DewpointF,Max Humidity, Mean Humidity, Min Humidity, Max Sea Level PressureIn, Mean Sea Level PressureIn, Min Sea Level PressureIn, Max VisibilityMiles, Mean VisibilityMiles, Min VisibilityMiles, Max Wind SpeedMPH, Mean Wind SpeedMPH, Max Gust SpeedMPH,PrecipitationIn, CloudCover, Events, WindDirDegrees
2013-11-1,61,52,43,44,41,38,87,71,47,29.96,29.82,29.67,10,10,10,16,10,31,0.01,2,Rain,277
2013-11-2,54,46,36,41,38,33,91,72,50,30.21,30.13,29.96,10,10,10,16,10,20,0.00,3,,295
2013-11-3,60,46,33,39,35,32,93,67,42,30.22,30.12,30.00,10,10,8,20,7,25,0.00,2,,172
2013-11-4,61,56,51,50,45,39,82,68,58,30.15,30.04,29.96,10,10,10,24,14,32,0.00,6,,189
2013-11-5,60,56,51,59,54,50,100,95,88,30.16,30.05,29.86,10,8,4,18,10,24,0.61,8,Rain-Thunderstorm,170
2013-11-6,60,47,34,59,40,31,94,85,69,30.36,30.13,29.85,10,9,1,17,13,30,0.90,6,Rain-Thunderstorm,291
2013-11-7,56,42,29,36,30,26,94,68,37,30.41,30.38,30.34,10,10,10,17,6,23,0.00,0,,266
2013-11-8,63,46,29,38,33,26,91,58,38,30.36,30.15,29.96,10,10,10,31,10,38,0.00,1,,192
2013-11-9,65,52,39,40,36,32,88,57,30,30.30,30.17,30.02,10,10,7,18,9,,0.00,0,,274
2013-11-10,57,47,37,35,31,27,80,52,33,30.45,30.33,30.25,10,6,2,10,5,,0.00,2,,124
2013-11-11,62,46,29,50,40,18,88,70,56,30.61,30.27,30.16,10,6,1,25,12,36,0.00,7,,297
2013-11-12,34,26,18,18,13,9,82,63,35,30.89,30.77,30.64,10,10,6,18,11,25,0.00,1,,360
2013-11-13,47,32,17,21,16,12,86,63,27,30.73,30.53,30.26,10,9,5,21,7,24,0.00,0,,202
2013-11-14,53,42,31,25,23,21,70,50,31,30.24,30.10,30.00,10,10,10,25,16,30,0.00,3,,206
2013-11-15,58,50,42,46,38,26,87,66,46,30.01,29.91,29.80,10,10,10,18,12,24,0.00,4,,189
2013-11-16,67,58,50,60,56,47,94,83,71,29.80,29.60,29.48,10,9,5,32,21,43,0.07,6,Rain-Thunderstorm,194
2013-11-17,68,56,43,62,40,15,88,52,13,30.07,29.65,29.37,10,10,10,30,19,44,0.01,1,,257
2013-11-18,55,45,35,35,30,25,86,59,33,30.31,30.24,30.07,10,10,7,9,6,,0.00,0,,286
2013-11-19,59,46,32,31,26,22,77,48,27,30.29,30.19,30.06,10,10,10,17,8,22,0.00,3,,154
2013-11-20,49,44,38,40,31,17,91,66,29,30.05,29.99,29.94,10,9,4,17,11,25,0.45,8,Rain-Thunderstorm,135
2013-11-21,52,42,31,48,41,30,100,88,53,30.38,30.13,30.01,10,7,2,18,8,26,0.57,8,Rain,345
2013-11-22,31,29,26,29,25,23,93,85,80,30.63,30.56,30.40,10,10,5,16,13,18,0.00,7,,352
2013-11-23,28,20,12,21,13,7,84,66,45,30.82,30.74,30.62,10,10,10,17,10,21,0.00,3,,356
2013-11-24,28,19,11,13,9,6,81,63,44,30.79,30.64,30.39,10,10,10,10,5,,0.00,2,,142
2013-11-25,37,31,25,22,17,12,81,55,45,30.38,30.26,30.18,10,10,6,14,8,,0.00,6,Snow,221
2013-11-26,36,29,21,25,19,10,86,66,48,30.41,30.26,30.17,10,10,10,20,10,32,0.00,2,,336
2013-11-27,32,24,15,14,10,8,73,58,38,30.47,30.36,30.23,10,10,10,15,7,,0.00,1,,276
2013-11-28,43,34,23,23,18,13,76,58,42,30.53,30.35,30.21,10,10,10,16,10,,0.00,0,,299
2013-11-29,50,36,22,28,24,17,80,65,42,30.55,30.44,30.32,10,10,10,9,4,,0.00,0,,134
2013-11-30,55,43,31,38,32,26,95,72,51,30.30,30.18,30.10,10,10,10,14,7,22,0.00,0,,202